Location: Newark
(42.8481°N, 0.4872°E)
Time: 23:46:43
(UTC+00:00)

Transit 2A - Pass Details

Date: 01 November 2020
Orbit: 595 x 963 km, 66.7° (Epoch: 03 December)

Event Time Altitude Azimuth Distance (km) Brightness Sun altitude
Rises 08:02:34 0° 333° (NNW) 3,455 8.8 13.7°
Reaches altitude 10° 08:05:20 10° 341° (NNW) 2,456 8.2 14.2°
Maximum altitude 08:10:35 38° 49° (NE) 1,165 7.3 14.9°
Drops below altitude 10° 08:15:18 10° 118° (ESE) 2,209 10.7 15.6°
Sets 08:17:41 0° 127° (SE) 3,068 11.0 16.0°
